TDRS 7 1 23613U 95035B 21018.41543373 -.00000203 00000-0 00000-0 0 9995 2 23613 14.1460 2.7066 0027514 30.0448 319.7129 1.00271156 93436 IUS R/B(1) 1 23614U 95035C 21017.89613024 .00000012 00000-0 38552-3 0 9991 2 23614 25.8292 190.7141 7026319 165.3125 237.0945 2.54714649226653 IUS R/B(2) 1 23615U 95035D 21017.77924850 -.00000307 00000-0 00000-0 0 9993 2 23615 16.8605 359.9786 0010960 97.7940 74.0623 1.00486326 93547